Home   Weather   Rome   Past weeks

Flag for Italy Past Weather in Rome, Italy — Yesterday and Last 2 Weeks

Now
46 °F

Passing clouds.


Feels Like: 44 °F
Forecast: 45 / 68 °F
Wind: 5 mph from East

Location: Rome / Ciampino

Current Time: Apr 24, 2017 at 7:43:09 am

Latest Report: Apr 24, 2017 at 6:50 am


Visibility: N/A

Pressure: 30.12 "Hg

Humidity: 87%

Dew Point: 43 °F

Location of RomeLocation

Past Weather in Rome — Graph

°F

Rome Temperature Yesterday

Maximum temperature yesterday: 64 °F (at 1:50 pm)
Minimum temperature yesterday: 43 °F (at 4:50 am)
Average temperature yesterday: 55 °F

High & Low Weather Summary for the Past Weeks

 TemperatureHumidityPressure
High64 °F (Apr 22, 1:20 pm)87% (Apr 23, 4:20 am)30.30 "Hg (Apr 23, 4:20 am)
Low36 °F (Apr 22, 6:50 am)18% (Apr 22, 12:20 pm)29.86 "Hg (Apr 19, 8:20 am)
Average51 °F50%30.15 "Hg
* Reported Apr 19 8:20 am — Apr 24 6:20 am, Rome, Weather by CustomWeather, © 2017

Note: Actual official high and low records may vary slightly from our data, if they occured in-between our weather recording intervals... More about our weather records

Advertising

Rome Weather History for the Previous 24 Hours

Scroll right to see more
 ConditionsComfort  
Time TempWeatherWind HumidityBarometerVisibility
6:20 am
Mon, Apr 24
48 °FPassing clouds.5 mph82%30.12 "HgN/A
5:50 am48 °FPassing clouds.5 mph82%30.12 "HgN/A
5:20 am48 °FClear.6 mph76%30.12 "Hg10 mi
4:50 am48 °FClear.6 mph76%30.12 "Hg10 mi
4:20 am48 °FClear.6 mph87%30.12 "Hg10 mi
3:50 am48 °FClear.6 mph82%30.12 "Hg10 mi
3:20 am48 °FClear.6 mph82%30.12 "Hg10 mi
2:50 am48 °FClear.5 mph76%30.12 "Hg10 mi
2:20 am48 °FClear.6 mph82%30.12 "Hg10 mi
1:50 am50 °FClear.5 mph76%30.15 "Hg10 mi
1:20 am50 °FClear.6 mph76%30.15 "Hg10 mi
12:50 am50 °FClear.6 mph76%30.15 "Hg10 mi
12:20 am50 °FClear.5 mph76%30.15 "Hg10 mi
11:50 pm
Sun, Apr 23
50 °FPassing clouds.3 mph82%30.15 "HgN/A
11:20 pm52 °FClear.5 mph77%30.15 "Hg10 mi
10:50 pm52 °FClear.5 mph82%30.15 "Hg10 mi
10:20 pm54 °FClear.3 mph77%30.15 "Hg10 mi
9:50 pm54 °FClear.5 mph77%30.12 "Hg10 mi
9:20 pm55 °FClear.3 mph72%30.12 "Hg10 mi
8:50 pm57 °FClear.3 mph67%30.12 "Hg10 mi
8:20 pm59 °FPassing clouds.3 mph63%30.12 "HgN/A
7:50 pm61 °FPassing clouds.6 mph52%30.09 "HgN/A
7:20 pm61 °FPassing clouds.6 mph52%30.09 "HgN/A
6:50 pm63 °FPassing clouds.6 mph45%30.09 "HgN/A
6:20 pm63 °FPassing clouds.7 mph45%30.09 "HgN/A
5:50 pm64 °FPassing clouds.6 mph40%30.09 "HgN/A
5:20 pm63 °FPassing clouds.7 mph37%30.09 "HgN/A
4:50 pm64 °FPassing clouds.8 mph37%30.09 "HgN/A
4:20 pm64 °FPassing clouds.7 mph34%30.09 "HgN/A
3:50 pm64 °FPassing clouds.9 mph40%30.09 "HgN/A
3:20 pm64 °FPassing clouds.8 mph43%30.09 "HgN/A
2:50 pm64 °FPassing clouds.9 mph40%30.09 "HgN/A
1:50 pm64 °FPassing clouds.8 mph40%30.09 "HgN/A
1:20 pm63 °FPassing clouds.10 mph49%30.09 "HgN/A
12:50 pm63 °FPassing clouds.8 mph49%30.12 "HgN/A
12:20 pm63 °FPassing clouds.8 mph49%30.12 "HgN/A
11:50 am63 °FPassing clouds.7 mph42%30.12 "HgN/A
11:20 am63 °FPassing clouds.7 mph49%30.12 "HgN/A
10:50 am61 °FPassing clouds.5 mph55%30.12 "HgN/A
10:20 am61 °FPassing clouds.5 mph52%30.12 "HgN/A
9:50 am59 °FPassing clouds.3 mph59%30.12 "HgN/A
8:50 am57 °FSunny.1 mph67%30.12 "Hg10 mi
8:20 am55 °FSunny.2 mph72%30.09 "Hg10 mi
7:50 am52 °FSunny.1 mph77%30.09 "Hg10 mi
7:20 am46 °FSunny.6 mph82%30.09 "Hg10 mi
Weather by CustomWeather, © 2017

See weather overviewHow to use our weather pages